This demonstration page uses our WeatherBlox Daily Observations layout. Learn more.

Left ArrowRight Arrow

Hourly Observations for October 25, 2016

Temp ( °F °C ) Dew Point ( °F °C ) Humidity (%) Winds ( mph kmh ) Pressure ( in mb ) Visibility ( mi km ) Precip ( " mm )
12:54 am 00:54 Clear 53 11.7 44 6.7 72 72 E 6 9 30.23 1024 10 16.0934 0 0
1:54 am 01:54 Cloudy 55 12.8 45 7.2 69 69 ESE 8 13 30.22 1023 10 16.0934 0 0
2:54 am 02:54 Cloudy 55 12.8 45 7.2 69 69 SE 8 13 30.21 1023 10 16.0934 0 0
3:54 am 03:54 Cloudy 55 12.8 45 7.2 69 69 SE 10 17 30.18 1022 10 16.0934 0 0
4:54 am 04:54 Cloudy 54 12.2 46 7.8 75 75 SE 7 11 30.16 1021 10 16.0934 0 0
5:54 am 05:54 Cloudy 56 13.3 46 7.8 70 70 SE 10 17 30.16 1021 10 16.0934 0 0
6:54 am 06:54 Cloudy 55 12.8 46 7.8 72 72 ESE 7 11 30.14 1021 10 16.0934 0 0
7:54 am 07:54 Mostly Cloudy 54 12.2 47 8.3 77 77 SE 8 13 30.13 1020 10 16.0934 0 0
8:54 am 08:54 Mostly Cloudy 56 13.3 48 8.9 75 75 ESE 8 13 30.13 1020 10 16.0934 0 0
9:54 am 09:54 Mostly Sunny 58 14.4 49 9.4 72 72 ESE 10 17 30.11 1020 10 16.0934 0 0
10:54 am 10:54 Cloudy 60 15.6 50 10 70 70 ESE 9 15 30.11 1020 10 16.0934 0 0
11:54 am 11:54 Sunny 65 18.3 52 11.1 63 63 ESE 12 19 30.08 1019 10 16.0934 0 0
12:54 pm 12:54 Sunny 68 20 53 11.7 59 59 ESE 16 26 30.04 1017 10 16.0934 0 0
1:54 pm 13:54 Sunny 71 21.7 54 12.2 55 55 ESE 16 26 29.99 1016 10 16.0934 0 0
2:54 pm 14:54 Sunny 73 22.8 56 13.3 55 55 ESE 20 31 29.96 1015 10 16.0934 0 0
3:54 pm 15:54 Sunny 76 24.4 58 14.4 54 54 ESE 13 20 29.93 1013 10 16.0934 0 0
4:54 pm 16:54 Sunny 78 25.6 59 15 52 52 SSE 15 24 29.89 1012 10 16.0934 0 0
5:54 pm 17:54 Sunny 77 25 60 15.6 56 56 SSE 14 22 29.88 1012 10 16.0934 0 0
6:54 pm 18:54 Clear 74 23.3 60 15.6 62 62 SSE 13 20 29.89 1012 10 16.0934 0 0
7:54 pm 19:54 Clear 74 23.3 59 15 60 60 SSE 13 20 29.91 1013 10 16.0934 0 0
8:54 pm 20:54 Mostly Cloudy 73 22.8 60 15.6 64 64 S 13 20 29.91 1013 10 16.0934 0 0
9:54 pm 21:54 Partly Cloudy with Light Rain 73 22.8 61 16.1 66 66 S 18 30 29.9 1012 10 16.0934 0 0.0254
10:54 pm 22:54 Mostly Cloudy with Light Rain 70 21.1 63 17.2 79 79 S 16 26 29.89 1012 10 16.0934 0.01 0.254
11:54 pm 23:54 Partly Cloudy with Light Rain 72 22.2 62 16.7 71 71 SSW 21 33 29.86 1011 10 16.0934 0 0.0254

Powered by AerisWeather